Tracking 17887 objects as of 11-December-2016
HD Live streaming from Space Station
objects crossing your sky now

SL-16 DEB

Track SL-16 DEB now!
10-day predictions


NORAD ID: 22453
Int'l Code: 1992-093ES
Perigee: 824.1 km
Apogee: 1,081.5 km
Inclination: 70.8 °
Period: 104.0 minutes
Semi major axis: 7323 km
RCS: 0.0192 m2 (small)
Launch date: December 25, 1992
Source: Commonwealth of Independent States (former USSR) (CIS)
Launch site: TYURATAM MISSILE AND SPACE COMPLEX (TTMTR)

Note: This is SATELLITE DEBRIS
Your satellite tracking list
Your tracking list is empty





NASA's NSSDC Master Catalog

Two Line Element Set (TLE):
1 22453U 92093ES  16346.02524984  .00000194  00000-0  18772-3 0  9995
2 22453  70.8050 326.1944 0175690 333.6748  81.6398 13.85160175205750
Source of the keplerian elements: AFSPC